Wetterdaten: Samstag, 28.11.2015
Datum Zeit Temp. A. Feuchte A. Luftdruck Regen Wind Richtung Richtung Sonnenschein ET UV Solar Taupunkt Windchill Windben Empfang
28.11.2015 00:00 1,2 C 96 % 1013,9 hPa 0,0 l/m 1,8 km/h (1 Bft) O-SO 123 0 min 0,000 mm 0,0 UV-I 0 W/m 0,6 C 1,2 C 4,8 km/h (1 Bft) 97,32 %
28.11.2015 00:05 1,2 C 96 % 1013,9 hPa 0,0 l/m 0,4 km/h (0 Bft) O-SO 123 0 min 0,000 mm 0,0 UV-I 0 W/m 0,6 C 1,2 C 3,2 km/h (1 Bft) 95,65 %
28.11.2015 00:10 1,2 C 96 % 1013,9 hPa 0,0 l/m 0,0 km/h (0 Bft) O-SO 123 0 min 0,000 mm 0,0 UV-I 0 W/m 0,6 C 1,2 C 0,0 km/h (0 Bft) 96,58 %
28.11.2015 00:15 1,2 C 96 % 1013,9 hPa 0,0 l/m 0,0 km/h (0 Bft) O-SO 123 0 min 0,000 mm 0,0 UV-I 0 W/m 0,6 C 1,2 C 0,0 km/h (0 Bft) 98,35 %
28.11.2015 00:20 1,2 C 96 % 1013,8 hPa 0,0 l/m 0,0 km/h (0 Bft) O-SO 123 0 min 0,000 mm 0,0 UV-I 0 W/m 0,6 C 1,2 C 0,0 km/h (0 Bft) 99,08 %
28.11.2015 00:25 1,2 C 96 % 1013,9 hPa 0,0 l/m 0,5 km/h (0 Bft) O-SO 123 0 min 0,000 mm 0,0 UV-I 0 W/m 0,6 C 1,2 C 1,6 km/h (1 Bft) 96,43 %
28.11.2015 00:35 1,2 C 96 % 1013,7 hPa 0,0 l/m 0,0 km/h (0 Bft) O-SO 123 0 min 0,000 mm 0,0 UV-I 0 W/m 0,6 C 1,2 C 0,0 km/h (0 Bft) 99,39 %
28.11.2015 00:40 1,2 C 96 % 1013,7 hPa 0,0 l/m 0,0 km/h (0 Bft) O-SO 123 0 min 0,000 mm 0,0 UV-I 0 W/m 0,6 C 1,2 C 0,0 km/h (0 Bft) 100,00 %
28.11.2015 00:45 1,2 C 96 % 1013,6 hPa 0,0 l/m 0,1 km/h (0 Bft) O-SO 123 0 min 0,000 mm 0,0 UV-I 0 W/m 0,6 C 1,2 C 1,6 km/h (1 Bft) 100,00 %
28.11.2015 00:50 1,1 C 96 % 1013,5 hPa 0,0 l/m 0,3 km/h (0 Bft) O-SO 123 0 min 0,000 mm 0,0 UV-I 0 W/m 0,5 C 1,1 C 1,6 km/h (1 Bft) 98,33 %
28.11.2015 00:55 1,1 C 96 % 1013,5 hPa 0,0 l/m 1,4 km/h (1 Bft) O-SO 123 0 min 0,000 mm 0,0 UV-I 0 W/m 0,5 C 1,1 C 3,2 km/h (1 Bft) 98,35 %
28.11.2015 01:00 1,1 C 96 % 1013,5 hPa 0,0 l/m 1,7 km/h (1 Bft) O-SO 123 0 min 0,000 mm 0,0 UV-I 0 W/m 0,5 C 1,1 C 3,2 km/h (1 Bft) 100,00 %
28.11.2015 01:05 1,1 C 96 % 1013,5 hPa 0,0 l/m 0,7 km/h (0 Bft) O-SO 123 0 min 0,000 mm 0,0 UV-I 0 W/m 0,5 C 1,1 C 1,6 km/h (1 Bft) 98,33 %
28.11.2015 01:10 1,1 C 96 % 1013,5 hPa 0,0 l/m 0,8 km/h (0 Bft) O-SO 123 0 min 0,000 mm 0,0 UV-I 0 W/m 0,5 C 1,1 C 1,6 km/h (1 Bft) 100,00 %
28.11.2015 01:15 1,0 C 96 % 1013,4 hPa 0,0 l/m 0,0 km/h (0 Bft) O-SO 123 0 min 0,000 mm 0,0 UV-I 0 W/m 0,4 C 1,0 C 1,6 km/h (1 Bft) 99,12 %
28.11.2015 01:20 1,0 C 96 % 1013,4 hPa 0,0 l/m 0,1 km/h (0 Bft) O-SO 123 0 min 0,000 mm 0,0 UV-I 0 W/m 0,4 C 1,0 C 1,6 km/h (1 Bft) 100,00 %
28.11.2015 01:25 1,0 C 97 % 1013,4 hPa 0,0 l/m 0,0 km/h (0 Bft) O-SO 123 0 min 0,000 mm 0,0 UV-I 0 W/m 0,6 C 1,0 C 0,0 km/h (0 Bft) 97,58 %
28.11.2015 01:30 1,0 C 97 % 1013,4 hPa 0,0 l/m 0,0 km/h (0 Bft) O-SO 123 0 min 0,000 mm 0,0 UV-I 0 W/m 0,6 C 1,0 C 0,0 km/h (0 Bft) 97,37 %
28.11.2015 01:35 1,1 C 96 % 1013,4 hPa 0,0 l/m 0,0 km/h (0 Bft) O-SO 123 0 min 0,000 mm 0,0 UV-I 0 W/m 0,5 C 1,1 C 0,0 km/h (0 Bft) 99,11 %
28.11.2015 01:40 1,0 C 96 % 1013,4 hPa 0,0 l/m 0,0 km/h (0 Bft) O-SO 123 0 min 0,000 mm 0,0 UV-I 0 W/m 0,4 C 1,0 C 0,0 km/h (0 Bft) 99,22 %
28.11.2015 01:45 1,0 C 96 % 1013,4 hPa 0,0 l/m 0,0 km/h (0 Bft) O-SO 123 0 min 0,000 mm 0,0 UV-I 0 W/m 0,4 C 1,0 C 0,0 km/h (0 Bft) 96,33 %
28.11.2015 01:50 1,1 C 97 % 1013,3 hPa 0,0 l/m 0,0 km/h (0 Bft) O-SO 123 0 min 0,000 mm 0,0 UV-I 0 W/m 0,7 C 1,1 C 1,6 km/h (1 Bft) 97,58 %
28.11.2015 01:55 1,1 C 96 % 1013,3 hPa 0,0 l/m 1,5 km/h (1 Bft) O-SO 123 0 min 0,000 mm 0,0 UV-I 0 W/m 0,5 C 1,1 C 3,2 km/h (1 Bft) 94,87 %
28.11.2015 02:00 1,0 C 97 % 1013,3 hPa 0,0 l/m 1,5 km/h (1 Bft) O-SO 123 0 min 0,000 mm 0,0 UV-I 0 W/m 0,6 C 1,0 C 3,2 km/h (1 Bft) 95,28 %
28.11.2015 02:05 1,0 C 97 % 1013,4 hPa 0,0 l/m 1,0 km/h (0 Bft) O-SO 123 0 min 0,000 mm 0,0 UV-I 0 W/m 0,6 C 1,0 C 3,2 km/h (1 Bft) 97,58 %
28.11.2015 02:10 1,1 C 97 % 1013,4 hPa 0,0 l/m 0,8 km/h (0 Bft) O-SO 123 0 min 0,000 mm 0,0 UV-I 0 W/m 0,7 C 1,1 C 1,6 km/h (1 Bft) 96,67 %
28.11.2015 02:15 1,1 C 97 % 1013,2 hPa 0,0 l/m 0,2 km/h (0 Bft) O-SO 123 0 min 0,000 mm 0,0 UV-I 0 W/m 0,7 C 1,1 C 1,6 km/h (1 Bft) 97,25 %
28.11.2015 02:20 1,1 C 97 % 1013,1 hPa 0,0 l/m 1,0 km/h (0 Bft) O-SO 123 0 min 0,000 mm 0,0 UV-I 0 W/m 0,7 C 1,1 C 3,2 km/h (1 Bft) 98,31 %
28.11.2015 02:25 1,1 C 96 % 1013,1 hPa 0,0 l/m 1,1 km/h (1 Bft) O-SO 123 0 min 0,000 mm 0,0 UV-I 0 W/m 0,5 C 1,1 C 1,6 km/h (1 Bft) 99,21 %
28.11.2015 02:30 1,1 C 96 % 1013,0 hPa 0,0 l/m 1,7 km/h (1 Bft) O-SO 123 0 min 0,000 mm 0,0 UV-I 0 W/m 0,5 C 1,1 C 3,2 km/h (1 Bft) 100,00 %
28.11.2015 02:35 1,0 C 96 % 1012,9 hPa 0,0 l/m 1,4 km/h (1 Bft) O-SO 123 0 min 0,000 mm 0,0 UV-I 0 W/m 0,4 C 1,0 C 3,2 km/h (1 Bft) 98,97 %
28.11.2015 02:40 1,1 C 96 % 1012,9 hPa 0,0 l/m 1,7 km/h (1 Bft) W 263 0 min 0,000 mm 0,0 UV-I 0 W/m 0,5 C 1,1 C 4,8 km/h (1 Bft) 100,00 %
28.11.2015 02:45 1,1 C 96 % 1012,8 hPa 0,0 l/m 0,7 km/h (0 Bft) W-SW 249 0 min 0,000 mm 0,0 UV-I 0 W/m 0,5 C 1,1 C 3,2 km/h (1 Bft) 99,19 %
28.11.2015 02:50 1,1 C 96 % 1012,7 hPa 0,0 l/m 2,1 km/h (1 Bft) S-SW 204 0 min 0,000 mm 0,0 UV-I 0 W/m 0,5 C 1,1 C 3,2 km/h (1 Bft) 99,15 %
28.11.2015 02:55 1,1 C 96 % 1012,7 hPa 0,0 l/m 1,7 km/h (1 Bft) S-SW 204 0 min 0,000 mm 0,0 UV-I 0 W/m 0,5 C 1,1 C 3,2 km/h (1 Bft) 100,00 %
28.11.2015 03:00 1,1 C 96 % 1012,7 hPa 0,0 l/m 1,3 km/h (1 Bft) SW 232 0 min 0,000 mm 0,0 UV-I 0 W/m 0,5 C 1,1 C 4,8 km/h (1 Bft) 99,11 %
28.11.2015 03:05 1,1 C 96 % 1012,7 hPa 0,0 l/m 1,1 km/h (1 Bft) SW 232 0 min 0,000 mm 0,0 UV-I 0 W/m 0,5 C 1,1 C 3,2 km/h (1 Bft) 99,19 %
28.11.2015 03:10 1,1 C 96 % 1012,6 hPa 0,0 l/m 2,4 km/h (1 Bft) W-SW 248 0 min 0,000 mm 0,0 UV-I 0 W/m 0,5 C 1,1 C 4,8 km/h (1 Bft) 99,15 %
28.11.2015 03:15 1,1 C 96 % 1012,6 hPa 0,0 l/m 1,9 km/h (1 Bft) W-SW 247 0 min 0,000 mm 0,0 UV-I 0 W/m 0,5 C 1,1 C 4,8 km/h (1 Bft) 99,15 %
28.11.2015 03:20 1,2 C 95 % 1012,4 hPa 0,0 l/m 3,0 km/h (1 Bft) W 262 0 min 0,000 mm 0,0 UV-I 0 W/m 0,5 C 1,2 C 4,8 km/h (1 Bft) 99,15 %
28.11.2015 03:25 1,2 C 96 % 1012,4 hPa 0,0 l/m 3,0 km/h (1 Bft) W-NW 284 0 min 0,000 mm 0,0 UV-I 0 W/m 0,6 C 1,2 C 6,4 km/h (2 Bft) 100,00 %
28.11.2015 03:30 1,2 C 96 % 1012,4 hPa 0,0 l/m 3,9 km/h (1 Bft) W 271 0 min 0,000 mm 0,0 UV-I 0 W/m 0,6 C 1,2 C 6,4 km/h (2 Bft) 100,00 %
28.11.2015 03:35 1,2 C 95 % 1012,4 hPa 0,0 l/m 3,7 km/h (1 Bft) W 273 0 min 0,000 mm 0,0 UV-I 0 W/m 0,5 C 1,2 C 6,4 km/h (2 Bft) 100,00 %
28.11.2015 03:40 1,3 C 96 % 1012,4 hPa 0,0 l/m 2,6 km/h (1 Bft) W 271 0 min 0,000 mm 0,0 UV-I 0 W/m 0,7 C 1,3 C 6,4 km/h (2 Bft) 100,00 %
28.11.2015 03:45 1,2 C 96 % 1012,4 hPa 0,0 l/m 1,1 km/h (1 Bft) W 271 0 min 0,000 mm 0,0 UV-I 0 W/m 0,6 C 1,2 C 3,2 km/h (1 Bft) 98,35 %
28.11.2015 03:50 1,2 C 96 % 1012,4 hPa 0,0 l/m 2,2 km/h (1 Bft) W-NW 290 0 min 0,000 mm 0,0 UV-I 0 W/m 0,6 C 1,2 C 4,8 km/h (1 Bft) 96,52 %
28.11.2015 03:55 1,2 C 96 % 1012,5 hPa 0,0 l/m 1,7 km/h (1 Bft) W-NW 290 0 min 0,000 mm 0,0 UV-I 0 W/m 0,6 C 1,2 C 3,2 km/h (1 Bft) 97,30 %
28.11.2015 04:00 1,2 C 96 % 1012,5 hPa 0,0 l/m 2,6 km/h (1 Bft) W-SW 256 0 min 0,000 mm 0,0 UV-I 0 W/m 0,6 C 1,2 C 4,8 km/h (1 Bft) 97,39 %
28.11.2015 04:05 1,2 C 96 % 1012,5 hPa 0,0 l/m 3,5 km/h (1 Bft) SW 221 0 min 0,000 mm 0,0 UV-I 0 W/m 0,6 C 1,2 C 4,8 km/h (1 Bft) 98,08 %
28.11.2015 04:10 1,2 C 96 % 1012,4 hPa 0,0 l/m 3,7 km/h (1 Bft) W-SW 238 0 min 0,000 mm 0,0 UV-I 0 W/m 0,6 C 1,2 C 6,4 km/h (2 Bft) 96,40 %
28.11.2015 04:15 1,2 C 96 % 1012,5 hPa 0,0 l/m 3,7 km/h (1 Bft) SW 229 0 min 0,000 mm 0,0 UV-I 0 W/m 0,6 C 1,2 C 6,4 km/h (2 Bft) 96,69 %
28.11.2015 04:20 1,2 C 96 % 1012,6 hPa 0,0 l/m 2,8 km/h (1 Bft) SW 229 0 min 0,000 mm 0,0 UV-I 0 W/m 0,6 C 1,2 C 4,8 km/h (1 Bft) 98,37 %
28.11.2015 04:25 1,2 C 96 % 1012,6 hPa 0,0 l/m 3,1 km/h (1 Bft) SW 229 0 min 0,000 mm 0,0 UV-I 0 W/m 0,6 C 1,2 C 4,8 km/h (1 Bft) 98,21 %
28.11.2015 04:30 1,2 C 96 % 1012,6 hPa 0,0 l/m 2,5 km/h (1 Bft) S-SW 208 0 min 0,000 mm 0,0 UV-I 0 W/m 0,6 C 1,2 C 4,8 km/h (1 Bft) 100,00 %
28.11.2015 04:35 1,2 C 95 % 1012,5 hPa 0,0 l/m 3,2 km/h (1 Bft) S-SW 192 0 min 0,000 mm 0,0 UV-I 0 W/m 0,5 C 1,2 C 4,8 km/h (1 Bft) 98,37 %
28.11.2015 04:40 1,2 C 96 % 1012,5 hPa 0,0 l/m 3,3 km/h (1 Bft) S 178 0 min 0,000 mm 0,0 UV-I 0 W/m 0,6 C 1,2 C 6,4 km/h (2 Bft) 98,26 %
28.11.2015 04:45 1,2 C 96 % 1012,5 hPa 0,0 l/m 3,7 km/h (1 Bft) S 188 0 min 0,000 mm 0,0 UV-I 0 W/m 0,6 C 1,2 C 4,8 km/h (1 Bft) 99,21 %
28.11.2015 04:50 1,2 C 96 % 1012,6 hPa 0,0 l/m 3,2 km/h (1 Bft) S 185 0 min 0,000 mm 0,0 UV-I 0 W/m 0,6 C 1,2 C 4,8 km/h (1 Bft) 100,00 %
28.11.2015 04:55 1,2 C 96 % 1012,6 hPa 0,0 l/m 3,8 km/h (1 Bft) S-SW 200 0 min 0,000 mm 0,0 UV-I 0 W/m 0,6 C 1,2 C 6,4 km/h (2 Bft) 100,00 %
28.11.2015 05:00 1,1 C 96 % 1012,6 hPa 0,0 l/m 3,6 km/h (1 Bft) S-SW 199 0 min 0,000 mm 0,0 UV-I 0 W/m 0,5 C 1,1 C 6,4 km/h (2 Bft) 100,00 %
28.11.2015 05:05 1,1 C 96 % 1012,7 hPa 0,0 l/m 3,0 km/h (1 Bft) S-SW 210 0 min 0,000 mm 0,0 UV-I 0 W/m 0,5 C 1,1 C 4,8 km/h (1 Bft) 98,17 %
28.11.2015 05:10 1,1 C 96 % 1012,6 hPa 0,0 l/m 4,6 km/h (1 Bft) S 178 0 min 0,000 mm 0,0 UV-I 0 W/m 0,5 C 1,1 C 8,0 km/h (2 Bft) 98,39 %
28.11.2015 05:15 1,1 C 96 % 1012,6 hPa 0,0 l/m 3,6 km/h (1 Bft) S-SW 200 0 min 0,000 mm 0,0 UV-I 0 W/m 0,5 C 1,1 C 6,4 km/h (2 Bft) 100,00 %
28.11.2015 05:20 1,1 C 96 % 1012,6 hPa 0,0 l/m 3,8 km/h (1 Bft) SW 225 0 min 0,000 mm 0,0 UV-I 0 W/m 0,5 C 1,1 C 8,0 km/h (2 Bft) 100,00 %
28.11.2015 05:25 1,1 C 96 % 1012,6 hPa 0,0 l/m 4,6 km/h (1 Bft) SW 221 0 min 0,000 mm 0,0 UV-I 0 W/m 0,5 C 1,1 C 8,0 km/h (2 Bft) 98,35 %
28.11.2015 05:30 1,1 C 96 % 1012,7 hPa 0,0 l/m 4,5 km/h (1 Bft) SW 219 0 min 0,000 mm 0,0 UV-I 0 W/m 0,5 C 1,1 C 6,4 km/h (2 Bft) 100,00 %
28.11.2015 05:35 1,1 C 95 % 1012,7 hPa 0,0 l/m 5,6 km/h (1 Bft) W 262 0 min 0,000 mm 0,0 UV-I 0 W/m 0,4 C 1,1 C 9,7 km/h (2 Bft) 98,17 %
28.11.2015 05:40 1,1 C 95 % 1012,7 hPa 0,0 l/m 5,5 km/h (1 Bft) W-SW 254 0 min 0,000 mm 0,0 UV-I 0 W/m 0,4 C 1,1 C 8,0 km/h (2 Bft) 100,00 %
28.11.2015 05:45 1,1 C 95 % 1012,7 hPa 0,0 l/m 7,7 km/h (2 Bft) W-SW 254 0 min 0,000 mm 0,0 UV-I 0 W/m 0,4 C -0,2 C 12,9 km/h (3 Bft) 99,12 %
28.11.2015 05:50 1,2 C 95 % 1012,7 hPa 0,0 l/m 8,6 km/h (2 Bft) W 273 0 min 0,000 mm 0,0 UV-I 0 W/m 0,5 C -0,9 C 16,1 km/h (3 Bft) 97,64 %
28.11.2015 05:55 1,2 C 95 % 1012,7 hPa 0,0 l/m 10,8 km/h (2 Bft) W-SW 254 0 min 0,000 mm 0,0 UV-I 0 W/m 0,5 C -2,7 C 20,9 km/h (4 Bft) 96,58 %
28.11.2015 06:00 1,2 C 94 % 1012,7 hPa 0,0 l/m 10,0 km/h (2 Bft) W-SW 253 0 min 0,000 mm 0,0 UV-I 0 W/m 0,3 C -2,1 C 16,1 km/h (3 Bft) 98,17 %
28.11.2015 06:05 1,2 C 94 % 1012,7 hPa 0,0 l/m 9,3 km/h (2 Bft) W 280 0 min 0,000 mm 0,0 UV-I 0 W/m 0,3 C -1,5 C 14,5 km/h (3 Bft) 97,46 %
28.11.2015 06:10 1,2 C 94 % 1012,8 hPa 0,0 l/m 6,1 km/h (2 Bft) W-NW 290 0 min 0,000 mm 0,0 UV-I 0 W/m 0,3 C 1,2 C 12,9 km/h (3 Bft) 96,83 %
28.11.2015 06:15 1,2 C 94 % 1012,8 hPa 0,0 l/m 7,9 km/h (2 Bft) W 267 0 min 0,000 mm 0,0 UV-I 0 W/m 0,3 C -0,3 C 14,5 km/h (3 Bft) 96,33 %
28.11.2015 06:20 1,2 C 94 % 1012,8 hPa 0,0 l/m 8,0 km/h (2 Bft) W 276 0 min 0,000 mm 0,0 UV-I 0 W/m 0,3 C -0,4 C 14,5 km/h (3 Bft) 95,83 %
28.11.2015 06:25 1,2 C 94 % 1012,9 hPa 0,0 l/m 6,8 km/h (2 Bft) W 261 0 min 0,000 mm 0,0 UV-I 0 W/m 0,3 C 0,8 C 14,5 km/h (3 Bft) 99,13 %
28.11.2015 06:30 1,1 C 94 % 1012,9 hPa 0,0 l/m 7,3 km/h (2 Bft) W 264 0 min 0,000 mm 0,0 UV-I 0 W/m 0,2 C 0,2 C 11,3 km/h (2 Bft) 97,39 %
28.11.2015 06:35 1,1 C 94 % 1013,0 hPa 0,0 l/m 6,2 km/h (2 Bft) W 261 0 min 0,000 mm 0,0 UV-I 0 W/m 0,2 C 1,1 C 12,9 km/h (3 Bft) 100,00 %
28.11.2015 06:40 1,1 C 94 % 1012,9 hPa 0,0 l/m 8,9 km/h (2 Bft) W 263 0 min 0,000 mm 0,0 UV-I 0 W/m 0,2 C -1,3 C 16,1 km/h (3 Bft) 98,26 %
28.11.2015 06:45 1,0 C 94 % 1012,9 hPa 0,0 l/m 7,2 km/h (2 Bft) W-NW 287 0 min 0,000 mm 0,0 UV-I 0 W/m 0,1 C 0,2 C 16,1 km/h (3 Bft) 99,21 %
28.11.2015 06:50 1,0 C 94 % 1012,9 hPa 0,0 l/m 9,6 km/h (2 Bft) W-SW 252 0 min 0,000 mm 0,0 UV-I 0 W/m 0,1 C -2,0 C 16,1 km/h (3 Bft) 99,10 %
28.11.2015 06:55 1,0 C 94 % 1013,0 hPa 0,0 l/m 10,5 km/h (2 Bft) W-SW 242 0 min 0,000 mm 0,0 UV-I 0 W/m 0,1 C -2,7 C 19,3 km/h (3 Bft) 99,13 %
28.11.2015 07:00 0,9 C 94 % 1013,0 hPa 0,0 l/m 5,8 km/h (2 Bft) W-SW 249 0 min 0,000 mm 0,0 UV-I 0 W/m 0,0 C 0,9 C 11,3 km/h (2 Bft) 97,62 %
28.11.2015 07:05 0,9 C 94 % 1013,1 hPa 0,0 l/m 6,8 km/h (2 Bft) W-NW 282 0 min 0,000 mm 0,0 UV-I 0 W/m 0,0 C 0,5 C 12,9 km/h (3 Bft) 98,21 %
28.11.2015 07:10 0,9 C 94 % 1013,1 hPa 0,0 l/m 6,2 km/h (2 Bft) W 265 0 min 0,000 mm 0,0 UV-I 0 W/m 0,0 C 0,9 C 16,1 km/h (3 Bft) 99,08 %
28.11.2015 07:15 0,9 C 94 % 1013,1 hPa 0,0 l/m 7,0 km/h (2 Bft) W 281 0 min 0,000 mm 0,0 UV-I 0 W/m 0,0 C 0,3 C 12,9 km/h (3 Bft) 100,00 %
28.11.2015 07:20 0,9 C 94 % 1013,1 hPa 0,0 l/m 8,1 km/h (2 Bft) W 268 0 min 0,000 mm 0,0 UV-I 0 W/m 0,0 C -0,8 C 14,5 km/h (3 Bft) 99,19 %
28.11.2015 07:25 0,9 C 94 % 1013,1 hPa 0,0 l/m 6,2 km/h (2 Bft) W 274 0 min 0,000 mm 0,0 UV-I 0 W/m 0,0 C 0,9 C 14,5 km/h (3 Bft) 100,00 %
28.11.2015 07:30 0,8 C 94 % 1013,2 hPa 0,0 l/m 5,5 km/h (1 Bft) W 266 0 min 0,000 mm 0,0 UV-I 0 W/m -0,1 C 0,8 C 9,7 km/h (2 Bft) 99,12 %
28.11.2015 07:35 0,8 C 94 % 1013,1 hPa 0,0 l/m 7,3 km/h (2 Bft) W-SW 250 0 min 0,000 mm 0,0 UV-I 0 W/m -0,1 C -0,1 C 12,9 km/h (3 Bft) 98,97 %
28.11.2015 07:45 0,8 C 94 % 1013,2 hPa 0,0 l/m 8,6 km/h (2 Bft) W-SW 254 0 min 0,000 mm 0,0 UV-I 7 W/m -0,1 C -1,4 C 12,9 km/h (3 Bft) 99,22 %
28.11.2015 07:50 0,8 C 94 % 1013,2 hPa 0,0 l/m 7,8 km/h (2 Bft) W-SW 251 0 min 0,000 mm 0,0 UV-I 9 W/m -0,1 C -0,6 C 12,9 km/h (3 Bft) 98,39 %
28.11.2015 07:55 0,9 C 94 % 1013,2 hPa 0,0 l/m 7,9 km/h (2 Bft) W-SW 246 0 min 0,000 mm 0,0 UV-I 11 W/m 0,0 C -0,6 C 12,9 km/h (3 Bft) 97,44 %
28.11.2015 08:00 0,9 C 94 % 1013,3 hPa 0,0 l/m 6,2 km/h (2 Bft) W 270 0 min 0,000 mm 0,0 UV-I 11 W/m 0,0 C 0,9 C 12,9 km/h (3 Bft) 95,41 %
28.11.2015 08:05 0,9 C 94 % 1013,3 hPa 0,0 l/m 6,3 km/h (2 Bft) W-NW 282 0 min 0,000 mm 0,0 UV-I 12 W/m 0,0 C 0,9 C 12,9 km/h (3 Bft) 96,85 %
28.11.2015 08:10 0,9 C 94 % 1013,4 hPa 0,0 l/m 6,4 km/h (2 Bft) W-SW 250 0 min 0,000 mm 0,0 UV-I 12 W/m 0,0 C 0,9 C 12,9 km/h (3 Bft) 97,30 %
28.11.2015 08:15 0,9 C 94 % 1013,4 hPa 0,0 l/m 6,4 km/h (2 Bft) W-SW 243 0 min 0,000 mm 0,0 UV-I 10 W/m 0,0 C 0,9 C 11,3 km/h (2 Bft) 97,52 %
28.11.2015 08:20 1,0 C 93 % 1013,4 hPa 0,0 l/m 6,0 km/h (2 Bft) W-SW 246 0 min 0,000 mm 0,0 UV-I 10 W/m -0,0 C 1,0 C 12,9 km/h (3 Bft) 96,33 %
28.11.2015 08:25 1,1 C 93 % 1013,4 hPa 0,0 l/m 7,2 km/h (2 Bft) SW 223 0 min 0,000 mm 0,0 UV-I 11 W/m 0,1 C 0,3 C 14,5 km/h (3 Bft) 97,44 %
28.11.2015 08:30 1,2 C 92 % 1013,5 hPa 0,0 l/m 7,4 km/h (2 Bft) W-SW 240 0 min 0,000 mm 0,0 UV-I 11 W/m 0,0 C 0,2 C 12,9 km/h (3 Bft) 100,00 %
28.11.2015 08:35 1,2 C 91 % 1013,5 hPa 0,0 l/m 6,5 km/h (2 Bft) S-SW 201 0 min 0,000 mm 0,0 UV-I 11 W/m -0,1 C 1,1 C 12,9 km/h (3 Bft) 99,12 %
28.11.2015 08:40 1,3 C 91 % 1013,4 hPa 0,0 l/m 5,6 km/h (1 Bft) S-SW 195 0 min 0,000 mm 0,0 UV-I 15 W/m -0,0 C 1,3 C 9,7 km/h (2 Bft) 98,39 %
28.11.2015 08:45 1,3 C 92 % 1013,5 hPa 0,0 l/m 3,8 km/h (1 Bft) W 260 0 min 0,000 mm 0,0 UV-I 30 W/m 0,1 C 1,3 C 8,0 km/h (2 Bft) 100,00 %
28.11.2015 08:50 1,4 C 92 % 1013,5 hPa 0,0 l/m 4,5 km/h (1 Bft) W-SW 254 0 min 0,000 mm 0,0 UV-I 39 W/m 0,2 C 1,4 C 8,0 km/h (2 Bft) 99,21 %
28.11.2015 08:55 1,4 C 89 % 1013,4 hPa 0,0 l/m 8,5 km/h (2 Bft) W-SW 238 0 min 0,000 mm 0,0 UV-I 49 W/m -0,2 C -0,6 C 17,7 km/h (3 Bft) 99,11 %
28.11.2015 09:00 1,6 C 87 % 1013,5 hPa 0,0 l/m 9,4 km/h (2 Bft) W-SW 257 0 min 0,000 mm 0,0 UV-I 56 W/m -0,3 C -1,2 C 20,9 km/h (4 Bft) 99,15 %
28.11.2015 09:05 1,7 C 86 % 1013,4 hPa 0,0 l/m 10,9 km/h (2 Bft) W 267 0 min 0,000 mm 0,0 UV-I 63 W/m -0,4 C -2,3 C 19,3 km/h (3 Bft) 98,29 %
28.11.2015 09:10 1,7 C 86 % 1013,4 hPa 0,0 l/m 11,0 km/h (2 Bft) W 267 0 min 0,000 mm 0,0 UV-I 66 W/m -0,4 C -2,3 C 17,7 km/h (3 Bft) 98,35 %
28.11.2015 09:15 1,7 C 85 % 1013,4 hPa 0,0 l/m 11,5 km/h (2 Bft) W-SW 246 0 min 0,000 mm 0,0 UV-I 79 W/m -0,5 C -2,7 C 24,1 km/h (4 Bft) 100,00 %
28.11.2015 09:20 1,8 C 85 % 1013,5 hPa 0,0 l/m 10,9 km/h (2 Bft) W-SW 253 0 min 0,000 mm 0,0 UV-I 109 W/m -0,4 C -2,1 C 19,3 km/h (3 Bft) 99,15 %
28.11.2015 09:25 1,8 C 84 % 1013,6 hPa 0,0 l/m 11,9 km/h (2 Bft) W 281 0 min 0,000 mm 0,0 UV-I 107 W/m -0,6 C -2,9 C 22,5 km/h (4 Bft) 96,69 %
28.11.2015 09:30 1,8 C 83 % 1013,6 hPa 0,0 l/m 13,8 km/h (3 Bft) W-SW 238 0 min 0,000 mm 0,0 UV-I 67 W/m -0,8 C -4,1 C 25,7 km/h (4 Bft) 100,00 %
28.11.2015 09:35 1,8 C 83 % 1013,5 hPa 0,0 l/m 11,3 km/h (2 Bft) W-SW 256 0 min 0,000 mm 0,0 UV-I 51 W/m -0,8 C -2,4 C 20,9 km/h (4 Bft) 100,00 %
28.11.2015 09:40 1,8 C 84 % 1013,6 hPa 0,0 l/m 10,8 km/h (2 Bft) W 271 0 min 0,000 mm 0,0 UV-I 46 W/m -0,6 C -2,1 C 17,7 km/h (3 Bft) 99,19 %
28.11.2015 09:45 1,8 C 84 % 1013,6 hPa 0,0 l/m 11,0 km/h (2 Bft) W 259 0 min 0,000 mm 0,0 UV-I 44 W/m -0,6 C -2,2 C 17,7 km/h (3 Bft) 100,00 %
28.11.2015 09:50 1,7 C 83 % 1013,6 hPa 0,0 l/m 11,1 km/h (2 Bft) W-SW 252 0 min 0,000 mm 0,0 UV-I 41 W/m -0,9 C -2,4 C 20,9 km/h (4 Bft) 98,43 %
28.11.2015 09:55 1,8 C 84 % 1013,6 hPa 0,0 l/m 7,0 km/h (2 Bft) W 271 0 min 0,000 mm 0,0 UV-I 62 W/m -0,6 C 1,2 C 17,7 km/h (3 Bft) 96,30 %
28.11.2015 10:00 1,8 C 82 % 1013,7 hPa 0,0 l/m 13,2 km/h (3 Bft) W 273 0 min 0,051 mm 0,0 UV-I 108 W/m -0,9 C -3,7 C 22,5 km/h (4 Bft) 97,52 %
28.11.2015 10:05 1,9 C 82 % 1013,6 hPa 0,0 l/m 13,1 km/h (3 Bft) W-SW 238 0 min 0,000 mm 0,0 UV-I 125 W/m -0,8 C -3,5 C 22,5 km/h (4 Bft) 95,87 %
28.11.2015 10:10 2,0 C 81 % 1013,6 hPa 0,0 l/m 11,9 km/h (2 Bft) W 267 0 min 0,000 mm 0,0 UV-I 135 W/m -0,9 C -2,6 C 22,5 km/h (4 Bft) 95,54 %
28.11.2015 10:15 2,1 C 81 % 1013,5 hPa 0,0 l/m 11,2 km/h (2 Bft) W-SW 250 0 min 0,000 mm 0,0 UV-I 134 W/m -0,8 C -2,0 C 19,3 km/h (3 Bft) 97,52 %
28.11.2015 10:20 2,2 C 82 % 1013,5 hPa 0,0 l/m 9,3 km/h (2 Bft) SW 234 0 min 0,000 mm 0,0 UV-I 136 W/m -0,5 C -0,5 C 16,1 km/h (3 Bft) 95,41 %
28.11.2015 10:25 2,2 C 81 % 1013,5 hPa 0,0 l/m 8,3 km/h (2 Bft) W-SW 244 0 min 0,000 mm 0,0 UV-I 132 W/m -0,7 C 0,4 C 16,1 km/h (3 Bft) 95,00 %
28.11.2015 10:30 2,3 C 80 % 1013,5 hPa 0,0 l/m 8,1 km/h (2 Bft) W 266 0 min 0,000 mm 0,5 UV-I 133 W/m -0,8 C 0,7 C 14,5 km/h (3 Bft) 96,77 %
28.11.2015 10:35 2,3 C 80 % 1013,4 hPa 0,0 l/m 8,1 km/h (2 Bft) W-SW 238 0 min 0,000 mm 0,5 UV-I 136 W/m -0,8 C 0,7 C 19,3 km/h (3 Bft) 99,06 %
28.11.2015 10:40 2,3 C 79 % 1013,4 hPa 0,0 l/m 10,1 km/h (2 Bft) W 273 0 min 0,000 mm 0,5 UV-I 146 W/m -1,0 C -1,0 C 19,3 km/h (3 Bft) 97,50 %
28.11.2015 10:45 2,3 C 79 % 1013,4 hPa 0,0 l/m 11,5 km/h (2 Bft) W-SW 253 0 min 0,000 mm 0,5 UV-I 146 W/m -1,0 C -2,0 C 20,9 km/h (4 Bft) 99,19 %
28.11.2015 10:50 2,2 C 79 % 1013,3 hPa 0,0 l/m 9,4 km/h (2 Bft) W-SW 248 0 min 0,000 mm 0,6 UV-I 136 W/m -1,1 C -0,5 C 19,3 km/h (3 Bft) 99,05 %
28.11.2015 10:55 2,2 C 79 % 1013,3 hPa 0,0 l/m 11,8 km/h (2 Bft) W-SW 247 0 min 0,000 mm 0,6 UV-I 106 W/m -1,1 C -2,3 C 19,3 km/h (3 Bft) 98,39 %
28.11.2015 11:00 2,4 C 80 % 1013,4 hPa 0,0 l/m 8,1 km/h (2 Bft) NW 325 5 min 0,076 mm 0,7 UV-I 268 W/m -0,7 C 0,8 C 19,3 km/h (3 Bft) 99,06 %
28.11.2015 11:05 2,7 C 77 % 1013,4 hPa 0,0 l/m 7,6 km/h (2 Bft) W-SW 254 5 min 0,000 mm 0,8 UV-I 320 W/m -0,9 C 1,6 C 17,7 km/h (3 Bft) 99,26 %
28.11.2015 11:10 2,8 C 77 % 1013,3 hPa 0,0 l/m 7,4 km/h (2 Bft) W 264 5 min 0,000 mm 0,8 UV-I 311 W/m -0,8 C 1,8 C 16,1 km/h (3 Bft) 100,00 %
28.11.2015 11:15 2,9 C 76 % 1013,3 hPa 0,0 l/m 6,8 km/h (2 Bft) W 281 5 min 0,000 mm 0,8 UV-I 314 W/m -0,9 C 2,5 C 16,1 km/h (3 Bft) 99,19 %
28.11.2015 11:20 3,0 C 75 % 1013,4 hPa 0,0 l/m 11,1 km/h (2 Bft) W 263 5 min 0,000 mm 0,8 UV-I 316 W/m -1,0 C -0,9 C 16,1 km/h (3 Bft) 99,17 %
28.11.2015 11:25 3,2 C 75 % 1013,3 hPa 0,0 l/m 8,6 km/h (2 Bft) W 277 5 min 0,000 mm 0,8 UV-I 321 W/m -0,8 C 1,2 C 19,3 km/h (3 Bft) 100,00 %
28.11.2015 11:30 3,2 C 76 % 1013,3 hPa 0,0 l/m 8,8 km/h (2 Bft) W-SW 244 5 min 0,000 mm 0,8 UV-I 311 W/m -0,6 C 1,0 C 12,9 km/h (3 Bft) 99,17 %
28.11.2015 11:35 3,4 C 75 % 1013,4 hPa 0,0 l/m 9,4 km/h (2 Bft) W-NW 292 5 min 0,000 mm 0,9 UV-I 321 W/m -0,6 C 0,8 C 17,7 km/h (3 Bft) 98,31 %
28.11.2015 11:40 3,4 C 75 % 1013,4 hPa 0,0 l/m 10,2 km/h (2 Bft) W-SW 257 5 min 0,000 mm 0,9 UV-I 325 W/m -0,6 C 0,2 C 19,3 km/h (3 Bft) 97,46 %
28.11.2015 11:45 3,4 C 74 % 1013,4 hPa 0,0 l/m 11,2 km/h (2 Bft) W 273 5 min 0,000 mm 0,9 UV-I 329 W/m -0,8 C -0,6 C 20,9 km/h (4 Bft) 97,44 %
28.11.2015 11:50 3,6 C 74 % 1013,5 hPa 0,0 l/m 9,9 km/h (2 Bft) W-SW 244 5 min 0,000 mm 0,9 UV-I 328 W/m -0,6 C 0,6 C 16,1 km/h (3 Bft) 97,32 %
28.11.2015 11:55 3,8 C 74 % 1013,5 hPa 0,0 l/m 13,5 km/h (3 Bft) W-NW 289 5 min 0,000 mm 0,9 UV-I 333 W/m -0,4 C -1,5 C 27,4 km/h (4 Bft) 97,50 %
28.11.2015 12:00 3,8 C 73 % 1013,4 hPa 0,0 l/m 13,7 km/h (3 Bft) W 259 5 min 0,127 mm 0,9 UV-I 338 W/m -0,6 C -1,7 C 20,9 km/h (4 Bft) 98,31 %
28.11.2015 12:05 4,0 C 73 % 1013,5 hPa 0,0 l/m 11,6 km/h (2 Bft) W 267 5 min 0,000 mm 0,9 UV-I 356 W/m -0,4 C -0,1 C 17,7 km/h (3 Bft) 97,52 %
28.11.2015 12:10 4,2 C 71 % 1013,3 hPa 0,0 l/m 16,0 km/h (3 Bft) W 259 5 min 0,000 mm 0,9 UV-I 357 W/m -0,6 C -2,4 C 25,7 km/h (4 Bft) 96,49 %
28.11.2015 12:15 4,3 C 69 % 1013,4 hPa 0,0 l/m 20,5 km/h (4 Bft) W 277 5 min 0,000 mm 0,9 UV-I 351 W/m -0,9 C -4,3 C 32,2 km/h (5 Bft) 99,11 %
28.11.2015 12:20 4,4 C 69 % 1013,4 hPa 0,0 l/m 15,3 km/h (3 Bft) W 279 5 min 0,000 mm 0,8 UV-I 330 W/m -0,8 C -1,8 C 25,7 km/h (4 Bft) 94,92 %
28.11.2015 12:25 4,4 C 67 % 1013,5 hPa 0,0 l/m 16,9 km/h (3 Bft) W 273 5 min 0,000 mm 0,8 UV-I 245 W/m -1,2 C -2,6 C 29,0 km/h (5 Bft) 95,24 %
28.11.2015 12:30 4,2 C 67 % 1013,3 hPa 0,0 l/m 15,0 km/h (3 Bft) W 279 5 min 0,000 mm 0,7 UV-I 233 W/m -1,4 C -1,9 C 27,4 km/h (4 Bft) 99,08 %
28.11.2015 12:35 4,2 C 68 % 1013,3 hPa 0,0 l/m 10,4 km/h (2 Bft) W 259 5 min 0,000 mm 0,6 UV-I 205 W/m -1,2 C 0,9 C 20,9 km/h (4 Bft) 59,13 %
28.11.2015 12:40 4,1 C 69 % 1013,3 hPa 0,0 l/m 13,6 km/h (3 Bft) W-SW 247 0 min 0,000 mm 0,6 UV-I 149 W/m -1,1 C -1,2 C 24,1 km/h (4 Bft) 11,67 %
28.11.2015 12:45 4,1 C 69 % 1013,3 hPa 0,0 l/m 10,8 km/h (2 Bft) W 270 0 min 0,000 mm 0,5 UV-I 123 W/m -1,1 C 0,5 C 19,3 km/h (3 Bft) 95,87 %
28.11.2015 12:50 4,1 C 70 % 1013,3 hPa 0,0 l/m 11,3 km/h (2 Bft) S-SW 210 0 min 0,000 mm 0,0 UV-I 81 W/m -0,9 C 0,2 C 20,9 km/h (4 Bft) 99,17 %
28.11.2015 12:55 4,1 C 70 % 1013,3 hPa 0,0 l/m 19,5 km/h (3 Bft) W 273 0 min 0,000 mm 0,0 UV-I 81 W/m -0,9 C -4,1 C 43,5 km/h (6 Bft) 99,13 %
28.11.2015 13:00 4,1 C 71 % 1013,4 hPa 0,0 l/m 17,3 km/h (3 Bft) W-SW 242 0 min 0,127 mm 0,0 UV-I 70 W/m -0,7 C -3,2 C 25,7 km/h (4 Bft) 99,08 %
28.11.2015 13:05 4,0 C 72 % 1013,5 hPa 0,0 l/m 18,4 km/h (3 Bft) W 259 0 min 0,000 mm 0,0 UV-I 70 W/m -0,6 C -3,8 C 27,4 km/h (4 Bft) 98,29 %
28.11.2015 13:10 3,9 C 72 % 1013,5 hPa 0,0 l/m 18,1 km/h (3 Bft) W 263 0 min 0,000 mm 0,0 UV-I 61 W/m -0,7 C -3,8 C 30,6 km/h (5 Bft) 100,00 %
28.11.2015 13:15 3,8 C 73 % 1013,6 hPa 0,0 l/m 19,0 km/h (3 Bft) SW 234 0 min 0,000 mm 0,0 UV-I 50 W/m -0,6 C -4,3 C 40,2 km/h (6 Bft) 98,29 %
28.11.2015 13:20 3,7 C 75 % 1013,8 hPa 0,0 l/m 14,6 km/h (3 Bft) W-SW 254 0 min 0,000 mm 0,0 UV-I 37 W/m -0,3 C -2,3 C 20,9 km/h (4 Bft) 96,52 %
28.11.2015 13:25 3,6 C 77 % 1013,7 hPa 0,0 l/m 16,2 km/h (3 Bft) SW 228 0 min 0,000 mm 0,0 UV-I 35 W/m -0,0 C -3,2 C 43,5 km/h (6 Bft) 97,52 %
28.11.2015 13:30 3,5 C 79 % 1013,9 hPa 0,0 l/m 22,6 km/h (4 Bft) W-SW 253 0 min 0,000 mm 0,0 UV-I 31 W/m 0,2 C -6,1 C 38,6 km/h (5 Bft) 95,88 %
28.11.2015 13:35 3,2 C 81 % 1014,0 hPa 0,2 l/m 18,6 km/h (3 Bft) W 275 0 min 0,000 mm 0,0 UV-I 29 W/m 0,3 C -4,9 C 30,6 km/h (5 Bft) 96,30 %
28.11.2015 13:40 3,0 C 83 % 1014,0 hPa 0,0 l/m 14,8 km/h (3 Bft) W 263 0 min 0,000 mm 0,0 UV-I 29 W/m 0,4 C -3,2 C 22,5 km/h (4 Bft) 96,67 %
28.11.2015 13:45 2,9 C 84 % 1014,0 hPa 0,0 l/m 15,2 km/h (3 Bft) W 259 0 min 0,000 mm 0,0 UV-I 31 W/m 0,5 C -3,6 C 24,1 km/h (4 Bft) 97,35 %
28.11.2015 13:50 2,8 C 85 % 1014,1 hPa 0,0 l/m 18,9 km/h (3 Bft) W-SW 248 0 min 0,000 mm 0,0 UV-I 32 W/m 0,5 C -5,5 C 27,4 km/h (4 Bft) 98,35 %
28.11.2015 13:55 2,7 C 86 % 1014,2 hPa 0,0 l/m 16,5 km/h (3 Bft) W-NW 285 0 min 0,000 mm 0,0 UV-I 29 W/m 0,6 C -4,5 C 24,1 km/h (4 Bft) 98,29 %
28.11.2015 14:00 2,6 C 88 % 1014,2 hPa 0,0 l/m 19,6 km/h (3 Bft) W 276 0 min 0,051 mm 0,0 UV-I 32 W/m 0,8 C -6,1 C 37,0 km/h (5 Bft) 98,31 %
28.11.2015 14:05 2,4 C 89 % 1014,2 hPa 0,0 l/m 21,3 km/h (4 Bft) W 262 0 min 0,000 mm 0,0 UV-I 40 W/m 0,8 C -7,1 C 30,6 km/h (5 Bft) 100,00 %
28.11.2015 14:10 2,3 C 90 % 1014,3 hPa 0,0 l/m 17,4 km/h (3 Bft) W-SW 251 0 min 0,000 mm 0,0 UV-I 42 W/m 0,8 C -5,5 C 27,4 km/h (4 Bft) 100,00 %
28.11.2015 14:15 2,2 C 91 % 1014,5 hPa 0,0 l/m 17,6 km/h (3 Bft) W-SW 247 0 min 0,000 mm 0,0 UV-I 36 W/m 0,9 C -5,7 C 27,4 km/h (4 Bft) 97,25 %
28.11.2015 14:20 2,2 C 91 % 1014,4 hPa 0,0 l/m 18,4 km/h (3 Bft) W 261 0 min 0,000 mm 0,0 UV-I 33 W/m 0,9 C -6,1 C 33,8 km/h (5 Bft) 97,39 %
28.11.2015 14:25 2,2 C 91 % 1014,5 hPa 0,0 l/m 18,6 km/h (3 Bft) SW 221 0 min 0,000 mm 0,0 UV-I 33 W/m 0,9 C -6,2 C 33,8 km/h (5 Bft) 99,21 %
28.11.2015 14:30 2,2 C 91 % 1014,5 hPa 0,0 l/m 20,1 km/h (4 Bft) W-SW 250 0 min 0,000 mm 0,0 UV-I 30 W/m 0,9 C -6,8 C 32,2 km/h (5 Bft) 100,00 %
28.11.2015 14:35 2,2 C 91 % 1014,6 hPa 0,0 l/m 14,2 km/h (3 Bft) SW 225 0 min 0,000 mm 0,0 UV-I 34 W/m 0,9 C -3,9 C 22,5 km/h (4 Bft) 99,22 %
28.11.2015 14:40 2,2 C 91 % 1014,7 hPa 0,0 l/m 19,3 km/h (3 Bft) W 271 0 min 0,000 mm 0,0 UV-I 33 W/m 0,9 C -6,5 C 32,2 km/h (5 Bft) 99,13 %
28.11.2015 14:45 2,2 C 91 % 1014,7 hPa 0,0 l/m 18,6 km/h (3 Bft) SW 226 0 min 0,000 mm 0,0 UV-I 34 W/m 0,9 C -6,2 C 29,0 km/h (5 Bft) 100,00 %
28.11.2015 14:50 2,2 C 92 % 1014,8 hPa 0,0 l/m 19,5 km/h (3 Bft) W-SW 242 0 min 0,000 mm 0,0 UV-I 35 W/m 1,0 C -6,6 C 37,0 km/h (5 Bft) 99,15 %
28.11.2015 14:55 2,1 C 92 % 1014,8 hPa 0,0 l/m 17,5 km/h (3 Bft) W-SW 246 0 min 0,000 mm 0,0 UV-I 34 W/m 0,9 C -5,8 C 30,6 km/h (5 Bft) 99,11 %
28.11.2015 15:00 2,1 C 93 % 1014,8 hPa 0,0 l/m 18,3 km/h (3 Bft) SW 215 0 min 0,025 mm 0,0 UV-I 31 W/m 1,1 C -6,1 C 27,4 km/h (4 Bft) 97,56 %
28.11.2015 15:05 2,1 C 93 % 1014,8 hPa 0,0 l/m 18,2 km/h (3 Bft) W 271 0 min 0,000 mm 0,0 UV-I 27 W/m 1,1 C -6,1 C 29,0 km/h (5 Bft) 100,00 %
28.11.2015 15:10 2,1 C 93 % 1014,9 hPa 0,2 l/m 21,8 km/h (4 Bft) SW 229 0 min 0,000 mm 0,0 UV-I 29 W/m 1,1 C -7,7 C 30,6 km/h (5 Bft) 100,00 %
28.11.2015 15:15 2,1 C 93 % 1015,0 hPa 0,0 l/m 20,7 km/h (4 Bft) S-SW 202 0 min 0,000 mm 0,0 UV-I 32 W/m 1,1 C -7,2 C 33,8 km/h (5 Bft) 98,37 %
28.11.2015 15:20 2,1 C 93 % 1015,1 hPa 0,0 l/m 22,3 km/h (4 Bft) W-SW 240 0 min 0,000 mm 0,0 UV-I 29 W/m 1,1 C -7,9 C 37,0 km/h (5 Bft) 93,91 %
28.11.2015 15:25 2,2 C 93 % 1015,2 hPa 0,0 l/m 22,9 km/h (4 Bft) W 263 0 min 0,000 mm 0,0 UV-I 22 W/m 1,2 C -8,0 C 35,4 km/h (5 Bft) 96,43 %
28.11.2015 15:30 2,2 C 93 % 1015,4 hPa 0,0 l/m 20,2 km/h (4 Bft) SW 219 0 min 0,000 mm 0,0 UV-I 16 W/m 1,2 C -6,9 C 32,2 km/h (5 Bft) 98,33 %
28.11.2015 15:35 2,2 C 93 % 1015,5 hPa 0,0 l/m 22,1 km/h (4 Bft) W-SW 256 0 min 0,000 mm 0,0 UV-I 13 W/m 1,2 C -7,7 C 35,4 km/h (5 Bft) 96,69 %
28.11.2015 15:40 2,2 C 93 % 1015,5 hPa 0,0 l/m 19,5 km/h (3 Bft) SW 231 0 min 0,000 mm 0,0 UV-I 10 W/m 1,2 C -6,6 C 25,7 km/h (4 Bft) 97,25 %
28.11.2015 15:45 2,2 C 93 % 1015,6 hPa 0,0 l/m 19,7 km/h (3 Bft) W-SW 248 0 min 0,000 mm 0,0 UV-I 9 W/m 1,2 C -6,7 C 32,2 km/h (5 Bft) 96,03 %
28.11.2015 15:50 2,3 C 93 % 1015,7 hPa 0,0 l/m 19,8 km/h (3 Bft) W 269 0 min 0,000 mm 0,0 UV-I 8 W/m 1,3 C -6,6 C 35,4 km/h (5 Bft) 98,31 %
28.11.2015 15:55 2,3 C 93 % 1015,7 hPa 0,0 l/m 19,5 km/h (3 Bft) W 260 0 min 0,000 mm 0,0 UV-I 5 W/m 1,3 C -6,4 C 30,6 km/h (5 Bft) 96,40 %
28.11.2015 16:00 2,3 C 93 % 1015,8 hPa 0,0 l/m 21,5 km/h (4 Bft) SW 217 0 min 0,026 mm 0,0 UV-I 0 W/m 1,3 C -7,3 C 33,8 km/h (5 Bft) 99,03 %
28.11.2015 16:05 2,3 C 93 % 1015,9 hPa 0,0 l/m 18,0 km/h (3 Bft) SW 227 0 min 0,000 mm 0,0 UV-I 0 W/m 1,3 C -5,7 C 30,6 km/h (5 Bft) 97,69 %
28.11.2015 16:10 2,3 C 93 % 1016,0 hPa 0,0 l/m 18,6 km/h (3 Bft) SW 228 0 min 0,000 mm 0,0 UV-I 0 W/m 1,3 C -6,0 C 29,0 km/h (5 Bft) 99,15 %
28.11.2015 16:15 2,3 C 93 % 1016,2 hPa 0,0 l/m 18,0 km/h (3 Bft) W 262 0 min 0,000 mm 0,0 UV-I 0 W/m 1,3 C -5,7 C 25,7 km/h (4 Bft) 99,15 %
28.11.2015 16:20 2,3 C 93 % 1016,3 hPa 0,0 l/m 20,2 km/h (4 Bft) W-SW 238 0 min 0,000 mm 0,0 UV-I 0 W/m 1,3 C -6,7 C 30,6 km/h (5 Bft) 100,00 %
28.11.2015 16:25 2,3 C 93 % 1016,4 hPa 0,2 l/m 18,1 km/h (3 Bft) W-SW 238 0 min 0,000 mm 0,0 UV-I 0 W/m 1,3 C -5,8 C 29,0 km/h (5 Bft) 98,33 %
28.11.2015 16:30 2,3 C 93 % 1016,5 hPa 0,0 l/m 18,1 km/h (3 Bft) W 267 0 min 0,000 mm 0,0 UV-I 0 W/m 1,3 C -5,8 C 32,2 km/h (5 Bft) 97,25 %
28.11.2015 16:35 2,3 C 93 % 1016,6 hPa 0,0 l/m 18,6 km/h (3 Bft) SW 223 0 min 0,000 mm 0,0 UV-I 0 W/m 1,3 C -6,0 C 27,4 km/h (4 Bft) 98,31 %
28.11.2015 16:40 2,3 C 94 % 1016,7 hPa 0,0 l/m 18,3 km/h (3 Bft) W 271 0 min 0,000 mm 0,0 UV-I 0 W/m 1,4 C -5,9 C 29,0 km/h (5 Bft) 99,21 %
28.11.2015 16:45 2,3 C 94 % 1016,9 hPa 0,0 l/m 18,0 km/h (3 Bft) SW 236 0 min 0,000 mm 0,0 UV-I 0 W/m 1,4 C -5,7 C 27,4 km/h (4 Bft) 100,00 %
28.11.2015 16:50 2,3 C 94 % 1017,0 hPa 0,2 l/m 17,2 km/h (3 Bft) W-SW 242 0 min 0,000 mm 0,0 UV-I 0 W/m 1,4 C -5,4 C 27,4 km/h (4 Bft) 98,29 %
28.11.2015 16:55 2,3 C 94 % 1017,1 hPa 0,0 l/m 18,8 km/h (3 Bft) SW 236 0 min 0,000 mm 0,0 UV-I 0 W/m 1,4 C -6,1 C 29,0 km/h (5 Bft) 100,00 %
28.11.2015 17:00 2,3 C 94 % 1017,2 hPa 0,0 l/m 18,3 km/h (3 Bft) W-SW 241 0 min 0,000 mm 0,0 UV-I 0 W/m 1,4 C -5,9 C 29,0 km/h (5 Bft) 98,17 %
28.11.2015 17:05 2,3 C 94 % 1017,3 hPa 0,0 l/m 18,9 km/h (3 Bft) S-SW 205 0 min 0,000 mm 0,0 UV-I 0 W/m 1,4 C -6,2 C 32,2 km/h (5 Bft) 99,21 %
28.11.2015 17:10 2,2 C 94 % 1017,5 hPa 0,0 l/m 16,5 km/h (3 Bft) S-SW 204 0 min 0,000 mm 0,0 UV-I 0 W/m 1,3 C -5,1 C 27,4 km/h (4 Bft) 98,35 %
28.11.2015 17:15 2,2 C 94 % 1017,5 hPa 0,2 l/m 17,1 km/h (3 Bft) SW 224 0 min 0,000 mm 0,0 UV-I 0 W/m 1,3 C -5,4 C 25,7 km/h (4 Bft) 99,08 %
28.11.2015 17:20 2,2 C 94 % 1017,6 hPa 0,0 l/m 13,3 km/h (3 Bft) SW 232 0 min 0,000 mm 0,0 UV-I 0 W/m 1,3 C -3,3 C 22,5 km/h (4 Bft) 99,15 %
28.11.2015 17:25 2,2 C 94 % 1017,7 hPa 0,0 l/m 15,9 km/h (3 Bft) SW 216 0 min 0,000 mm 0,0 UV-I 0 W/m 1,3 C -4,8 C 24,1 km/h (4 Bft) 97,52 %
28.11.2015 17:30 2,2 C 94 % 1017,8 hPa 0,0 l/m 15,6 km/h (3 Bft) SW 216 0 min 0,000 mm 0,0 UV-I 0 W/m 1,3 C -4,6 C 25,7 km/h (4 Bft) 95,83 %
28.11.2015 17:35 2,3 C 94 % 1017,9 hPa 0,2 l/m 12,6 km/h (3 Bft) SW 235 0 min 0,000 mm 0,0 UV-I 0 W/m 1,4 C -2,7 C 22,5 km/h (4 Bft) 96,43 %
28.11.2015 17:40 2,3 C 94 % 1018,1 hPa 0,0 l/m 13,6 km/h (3 Bft) SW 225 0 min 0,000 mm 0,0 UV-I 0 W/m 1,4 C -3,4 C 20,9 km/h (4 Bft) 97,39 %
28.11.2015 17:45 2,3 C 94 % 1018,1 hPa 0,0 l/m 13,6 km/h (3 Bft) S-SW 194 0 min 0,000 mm 0,0 UV-I 0 W/m 1,4 C -3,4 C 22,5 km/h (4 Bft) 93,16 %
28.11.2015 17:50 2,2 C 94 % 1018,1 hPa 0,0 l/m 15,7 km/h (3 Bft) S-SW 193 0 min 0,000 mm 0,0 UV-I 0 W/m 1,3 C -4,7 C 25,7 km/h (4 Bft) 98,31 %
28.11.2015 17:55 2,3 C 95 % 1018,2 hPa 0,0 l/m 17,3 km/h (3 Bft) W-SW 242 0 min 0,000 mm 0,0 UV-I 0 W/m 1,6 C -5,4 C 27,4 km/h (4 Bft) 97,32 %
28.11.2015 18:00 2,3 C 95 % 1018,2 hPa 0,0 l/m 18,3 km/h (3 Bft) SW 231 0 min 0,000 mm 0,0 UV-I 0 W/m 1,6 C -5,9 C 30,6 km/h (5 Bft) 99,22 %
28.11.2015 18:05 2,3 C 94 % 1018,2 hPa 0,0 l/m 18,8 km/h (3 Bft) S-SW 199 0 min 0,000 mm 0,0 UV-I 0 W/m 1,4 C -6,1 C 29,0 km/h (5 Bft) 97,39 %
28.11.2015 18:10 2,3 C 94 % 1018,3 hPa 0,0 l/m 19,2 km/h (3 Bft) W-SW 247 0 min 0,000 mm 0,0 UV-I 0 W/m 1,4 C -6,3 C 29,0 km/h (5 Bft) 97,50 %
28.11.2015 18:15 2,4 C 94 % 1018,5 hPa 0,0 l/m 16,7 km/h (3 Bft) W 275 0 min 0,000 mm 0,0 UV-I 0 W/m 1,5 C -5,0 C 25,7 km/h (4 Bft) 100,00 %
28.11.2015 18:20 2,4 C 94 % 1018,5 hPa 0,0 l/m 19,0 km/h (3 Bft) SW 226 0 min 0,000 mm 0,0 UV-I 0 W/m 1,5 C -6,1 C 33,8 km/h (5 Bft) 99,11 %
28.11.2015 18:25 2,4 C 94 % 1018,6 hPa 0,0 l/m 19,9 km/h (4 Bft) W-SW 252 0 min 0,000 mm 0,0 UV-I 0 W/m 1,5 C -6,5 C 35,4 km/h (5 Bft) 98,33 %
28.11.2015 18:30 2,6 C 94 % 1018,7 hPa 0,0 l/m 20,2 km/h (4 Bft) W 267 0 min 0,000 mm 0,0 UV-I 0 W/m 1,7 C -6,4 C 32,2 km/h (5 Bft) 100,00 %
28.11.2015 18:35 2,6 C 94 % 1018,8 hPa 0,0 l/m 19,2 km/h (3 Bft) W 260 0 min 0,000 mm 0,0 UV-I 0 W/m 1,7 C -5,9 C 29,0 km/h (5 Bft) 98,29 %
28.11.2015 18:40 2,6 C 94 % 1019,0 hPa 0,0 l/m 17,2 km/h (3 Bft) SW 225 0 min 0,000 mm 0,0 UV-I 0 W/m 1,7 C -5,0 C 29,0 km/h (5 Bft) 100,00 %
28.11.2015 18:45 2,5 C 94 % 1019,0 hPa 0,0 l/m 15,3 km/h (3 Bft) SW 229 0 min 0,000 mm 0,0 UV-I 0 W/m 1,6 C -4,1 C 25,7 km/h (4 Bft) 99,08 %
28.11.2015 18:50 2,4 C 94 % 1019,1 hPa 0,0 l/m 11,6 km/h (2 Bft) S-SW 212 0 min 0,000 mm 0,0 UV-I 0 W/m 1,5 C -2,0 C 19,3 km/h (3 Bft) 97,50 %
28.11.2015 18:55 2,4 C 94 % 1019,2 hPa 0,0 l/m 11,0 km/h (2 Bft) SW 233 0 min 0,000 mm 0,0 UV-I 0 W/m 1,5 C -1,5 C 19,3 km/h (3 Bft) 97,39 %
28.11.2015 19:00 2,4 C 94 % 1019,2 hPa 0,0 l/m 11,5 km/h (2 Bft) SW 228 0 min 0,000 mm 0,0 UV-I 0 W/m 1,5 C -1,9 C 19,3 km/h (3 Bft) 98,26 %
28.11.2015 19:05 2,4 C 94 % 1019,3 hPa 0,0 l/m 10,7 km/h (2 Bft) SW 235 0 min 0,000 mm 0,0 UV-I 0 W/m 1,5 C -1,3 C 19,3 km/h (3 Bft) 97,56 %
28.11.2015 19:10 2,4 C 94 % 1019,4 hPa 0,0 l/m 11,5 km/h (2 Bft) W-SW 241 0 min 0,000 mm 0,0 UV-I 0 W/m 1,5 C -1,9 C 19,3 km/h (3 Bft) 99,08 %
28.11.2015 19:15 2,4 C 94 % 1019,4 hPa 0,0 l/m 10,3 km/h (2 Bft) S-SW 203 0 min 0,000 mm 0,0 UV-I 0 W/m 1,5 C -1,0 C 19,3 km/h (3 Bft) 99,21 %
28.11.2015 19:20 2,4 C 94 % 1019,5 hPa 0,0 l/m 11,1 km/h (2 Bft) SW 218 0 min 0,000 mm 0,0 UV-I 0 W/m 1,5 C -1,6 C 19,3 km/h (3 Bft) 100,00 %
28.11.2015 19:25 2,5 C 94 % 1019,5 hPa 0,0 l/m 11,4 km/h (2 Bft) W-SW 246 0 min 0,000 mm 0,0 UV-I 0 W/m 1,6 C -1,7 C 19,3 km/h (3 Bft) 100,00 %
28.11.2015 19:30 2,5 C 94 % 1019,5 hPa 0,0 l/m 10,6 km/h (2 Bft) W-SW 238 0 min 0,000 mm 0,0 UV-I 0 W/m 1,6 C -1,1 C 19,3 km/h (3 Bft) 97,56 %
28.11.2015 19:35 2,6 C 94 % 1019,6 hPa 0,0 l/m 11,9 km/h (2 Bft) SW 232 0 min 0,000 mm 0,0 UV-I 0 W/m 1,7 C -1,9 C 20,9 km/h (4 Bft) 97,39 %
28.11.2015 19:40 2,7 C 94 % 1019,6 hPa 0,0 l/m 12,8 km/h (3 Bft) W-SW 251 0 min 0,000 mm 0,0 UV-I 0 W/m 1,8 C -2,4 C 22,5 km/h (4 Bft) 95,76 %
28.11.2015 19:45 2,7 C 94 % 1019,6 hPa 0,2 l/m 12,8 km/h (3 Bft) W-SW 254 0 min 0,000 mm 0,0 UV-I 0 W/m 1,8 C -2,4 C 25,7 km/h (4 Bft) 96,58 %
28.11.2015 19:50 2,8 C 94 % 1019,7 hPa 0,0 l/m 13,5 km/h (3 Bft) W-SW 254 0 min 0,000 mm 0,0 UV-I 0 W/m 1,9 C -2,7 C 22,5 km/h (4 Bft) 97,32 %
28.11.2015 19:55 2,9 C 93 % 1019,8 hPa 0,0 l/m 13,4 km/h (3 Bft) W-SW 248 0 min 0,000 mm 0,0 UV-I 0 W/m 1,9 C -2,5 C 20,9 km/h (4 Bft) 97,58 %
28.11.2015 20:00 2,9 C 94 % 1019,8 hPa 0,0 l/m 10,6 km/h (2 Bft) W-SW 257 0 min 0,000 mm 0,0 UV-I 0 W/m 2,0 C -0,7 C 19,3 km/h (3 Bft) 94,78 %
28.11.2015 20:05 2,8 C 94 % 1019,7 hPa 0,0 l/m 9,6 km/h (2 Bft) SW 234 0 min 0,000 mm 0,0 UV-I 0 W/m 1,9 C -0,0 C 17,7 km/h (3 Bft) 99,19 %
28.11.2015 20:10 2,6 C 94 % 1019,8 hPa 0,0 l/m 8,5 km/h (2 Bft) W-SW 255 0 min 0,000 mm 0,0 UV-I 0 W/m 1,7 C 0,6 C 14,5 km/h (3 Bft) 99,15 %
28.11.2015 20:15 2,6 C 94 % 1019,9 hPa 0,0 l/m 9,7 km/h (2 Bft) S-SW 196 0 min 0,000 mm 0,0 UV-I 0 W/m 1,7 C -0,3 C 19,3 km/h (3 Bft) 98,31 %
28.11.2015 20:20 2,6 C 95 % 1019,9 hPa 0,0 l/m 10,4 km/h (2 Bft) W-SW 239 0 min 0,000 mm 0,0 UV-I 0 W/m 1,9 C -0,9 C 19,3 km/h (3 Bft) 99,13 %
28.11.2015 20:25 2,6 C 95 % 1020,0 hPa 0,0 l/m 9,1 km/h (2 Bft) W-SW 239 0 min 0,000 mm 0,0 UV-I 0 W/m 1,9 C 0,1 C 16,1 km/h (3 Bft) 100,00 %
28.11.2015 20:30 2,7 C 94 % 1020,0 hPa 0,0 l/m 9,9 km/h (2 Bft) SW 227 0 min 0,000 mm 0,0 UV-I 0 W/m 1,8 C -0,4 C 19,3 km/h (3 Bft) 99,19 %
28.11.2015 20:35 2,7 C 94 % 1020,0 hPa 0,0 l/m 8,1 km/h (2 Bft) W-SW 244 0 min 0,000 mm 0,0 UV-I 0 W/m 1,8 C 1,1 C 17,7 km/h (3 Bft) 99,17 %
28.11.2015 20:40 2,7 C 94 % 1020,0 hPa 0,0 l/m 10,4 km/h (2 Bft) W-SW 239 0 min 0,000 mm 0,0 UV-I 0 W/m 1,8 C -0,8 C 16,1 km/h (3 Bft) 98,21 %
28.11.2015 20:45 2,7 C 94 % 1020,1 hPa 0,0 l/m 9,4 km/h (2 Bft) W-SW 249 0 min 0,000 mm 0,0 UV-I 0 W/m 1,8 C 0,0 C 16,1 km/h (3 Bft) 100,00 %
28.11.2015 20:50 2,7 C 94 % 1020,1 hPa 0,0 l/m 9,5 km/h (2 Bft) SW 215 0 min 0,000 mm 0,0 UV-I 0 W/m 1,8 C -0,1 C 14,5 km/h (3 Bft) 96,30 %
28.11.2015 20:55 2,7 C 94 % 1020,3 hPa 0,0 l/m 10,0 km/h (2 Bft) W-SW 237 0 min 0,000 mm 0,0 UV-I 0 W/m 1,8 C -0,5 C 17,7 km/h (3 Bft) 99,17 %
28.11.2015 21:00 2,7 C 94 % 1020,3 hPa 0,0 l/m 9,9 km/h (2 Bft) W-SW 256 0 min 0,000 mm 0,0 UV-I 0 W/m 1,8 C -0,4 C 16,1 km/h (3 Bft) 99,13 %
28.11.2015 21:05 2,8 C 94 % 1020,3 hPa 0,0 l/m 9,2 km/h (2 Bft) W 269 0 min 0,000 mm 0,0 UV-I 0 W/m 1,9 C 0,3 C 19,3 km/h (3 Bft) 100,00 %
28.11.2015 21:10 2,8 C 94 % 1020,3 hPa 0,0 l/m 12,0 km/h (2 Bft) W-SW 238 0 min 0,000 mm 0,0 UV-I 0 W/m 1,9 C -1,8 C 19,3 km/h (3 Bft) 99,15 %
28.11.2015 21:15 3,0 C 93 % 1020,4 hPa 0,0 l/m 13,5 km/h (3 Bft) W 275 0 min 0,000 mm 0,0 UV-I 0 W/m 2,0 C -2,5 C 19,3 km/h (3 Bft) 98,17 %
28.11.2015 21:20 3,1 C 92 % 1020,4 hPa 0,0 l/m 12,2 km/h (2 Bft) W-SW 240 0 min 0,000 mm 0,0 UV-I 0 W/m 1,9 C -1,6 C 22,5 km/h (4 Bft) 98,25 %
28.11.2015 21:25 3,2 C 91 % 1020,4 hPa 0,0 l/m 13,9 km/h (3 Bft) W-SW 238 0 min 0,000 mm 0,0 UV-I 0 W/m 1,9 C -2,5 C 24,1 km/h (4 Bft) 99,19 %
28.11.2015 21:30 3,2 C 91 % 1020,4 hPa 0,0 l/m 16,5 km/h (3 Bft) W 268 0 min 0,000 mm 0,0 UV-I 0 W/m 1,9 C -3,9 C 33,8 km/h (5 Bft) 99,17 %
28.11.2015 21:35 3,2 C 91 % 1020,5 hPa 0,0 l/m 12,7 km/h (3 Bft) SW 227 0 min 0,000 mm 0,0 UV-I 0 W/m 1,9 C -1,8 C 20,9 km/h (4 Bft) 98,59 %
28.11.2015 21:45 3,3 C 91 % 1020,7 hPa 0,0 l/m 16,6 km/h (3 Bft) W-SW 250 0 min 0,000 mm 0,0 UV-I 0 W/m 2,0 C -3,8 C 20,9 km/h (4 Bft) 97,79 %
28.11.2015 21:50 3,3 C 91 % 1020,7 hPa 0,0 l/m 15,4 km/h (3 Bft) W 272 0 min 0,000 mm 0,0 UV-I 0 W/m 2,0 C -3,2 C 25,7 km/h (4 Bft) 96,69 %
28.11.2015 21:55 3,3 C 91 % 1020,8 hPa 0,2 l/m 17,9 km/h (3 Bft) W-SW 246 0 min 0,000 mm 0,0 UV-I 0 W/m 2,0 C -4,4 C 29,0 km/h (5 Bft) 95,76 %
28.11.2015 22:00 3,2 C 91 % 1020,9 hPa 0,0 l/m 16,0 km/h (3 Bft) SW 233 0 min 0,000 mm 0,0 UV-I 0 W/m 1,9 C -3,6 C 25,7 km/h (4 Bft) 97,37 %
28.11.2015 22:05 3,2 C 91 % 1020,9 hPa 0,0 l/m 16,0 km/h (3 Bft) W 271 0 min 0,000 mm 0,0 UV-I 0 W/m 1,9 C -3,6 C 25,7 km/h (4 Bft) 96,69 %
28.11.2015 22:10 3,1 C 91 % 1021,1 hPa 0,0 l/m 14,8 km/h (3 Bft) W 263 0 min 0,000 mm 0,0 UV-I 0 W/m 1,8 C -3,1 C 24,1 km/h (4 Bft) 98,33 %
28.11.2015 22:15 3,1 C 91 % 1021,0 hPa 0,0 l/m 15,0 km/h (3 Bft) W 268 0 min 0,000 mm 0,0 UV-I 0 W/m 1,8 C -3,2 C 27,4 km/h (4 Bft) 99,13 %
28.11.2015 22:20 3,1 C 91 % 1021,0 hPa 0,0 l/m 16,1 km/h (3 Bft) W-SW 251 0 min 0,000 mm 0,0 UV-I 0 W/m 1,8 C -3,8 C 32,2 km/h (5 Bft) 99,17 %
28.11.2015 22:25 3,1 C 91 % 1020,8 hPa 0,0 l/m 17,8 km/h (3 Bft) W 261 0 min 0,000 mm 0,0 UV-I 0 W/m 1,8 C -4,6 C 29,0 km/h (5 Bft) 100,00 %
28.11.2015 22:30 3,2 C 90 % 1020,9 hPa 0,0 l/m 21,3 km/h (4 Bft) SW 234 0 min 0,000 mm 0,0 UV-I 0 W/m 1,7 C -6,0 C 33,8 km/h (5 Bft) 99,13 %
28.11.2015 22:35 3,2 C 90 % 1020,9 hPa 0,0 l/m 25,8 km/h (4 Bft) W 265 0 min 0,000 mm 0,0 UV-I 0 W/m 1,7 C -7,6 C 40,2 km/h (6 Bft) 99,15 %
28.11.2015 22:40 3,2 C 90 % 1021,0 hPa 0,0 l/m 19,1 km/h (3 Bft) N-NW 327 0 min 0,000 mm 0,0 UV-I 0 W/m 1,7 C -5,1 C 32,2 km/h (5 Bft) 100,00 %
28.11.2015 22:45 3,2 C 90 % 1021,1 hPa 0,0 l/m 16,1 km/h (3 Bft) W-SW 250 0 min 0,000 mm 0,0 UV-I 0 W/m 1,7 C -3,7 C 29,0 km/h (5 Bft) 99,19 %
28.11.2015 22:50 3,2 C 90 % 1021,1 hPa 0,0 l/m 18,4 km/h (3 Bft) W-SW 246 0 min 0,000 mm 0,0 UV-I 0 W/m 1,7 C -4,8 C 27,4 km/h (4 Bft) 99,12 %
28.11.2015 22:55 3,2 C 89 % 1021,2 hPa 0,0 l/m 16,8 km/h (3 Bft) W-SW 248 0 min 0,000 mm 0,0 UV-I 0 W/m 1,6 C -4,0 C 27,4 km/h (4 Bft) 99,17 %
28.11.2015 23:00 3,2 C 89 % 1021,1 hPa 0,0 l/m 17,0 km/h (3 Bft) W-SW 248 0 min 0,025 mm 0,0 UV-I 0 W/m 1,6 C -4,1 C 30,6 km/h (5 Bft) 100,00 %
28.11.2015 23:05 3,3 C 89 % 1021,2 hPa 0,0 l/m 20,7 km/h (4 Bft) W 271 0 min 0,000 mm 0,0 UV-I 0 W/m 1,7 C -5,7 C 41,8 km/h (6 Bft) 100,00 %
28.11.2015 23:10 3,3 C 87 % 1021,2 hPa 0,0 l/m 22,8 km/h (4 Bft) W-SW 252 0 min 0,000 mm 0,0 UV-I 0 W/m 1,3 C -6,5 C 35,4 km/h (5 Bft) 100,00 %
28.11.2015 23:15 3,3 C 87 % 1021,2 hPa 0,0 l/m 19,4 km/h (3 Bft) W 273 0 min 0,000 mm 0,0 UV-I 0 W/m 1,3 C -5,1 C 37,0 km/h (5 Bft) 99,22 %
28.11.2015 23:20 3,3 C 86 % 1021,3 hPa 0,0 l/m 16,3 km/h (3 Bft) W 275 0 min 0,000 mm 0,0 UV-I 0 W/m 1,2 C -3,7 C 25,7 km/h (4 Bft) 99,11 %
28.11.2015 23:25 3,3 C 86 % 1021,4 hPa 0,0 l/m 15,3 km/h (3 Bft) W-SW 250 0 min 0,000 mm 0,0 UV-I 0 W/m 1,2 C -3,1 C 27,4 km/h (4 Bft) 100,00 %
28.11.2015 23:30 3,3 C 86 % 1021,4 hPa 0,0 l/m 15,5 km/h (3 Bft) W 261 0 min 0,000 mm 0,0 UV-I 0 W/m 1,2 C -3,3 C 24,1 km/h (4 Bft) 99,17 %
28.11.2015 23:35 3,3 C 86 % 1021,5 hPa 0,0 l/m 15,3 km/h (3 Bft) W-SW 248 0 min 0,000 mm 0,0 UV-I 0 W/m 1,2 C -3,1 C 25,7 km/h (4 Bft) 98,33 %
28.11.2015 23:40 3,3 C 86 % 1021,5 hPa 0,0 l/m 16,1 km/h (3 Bft) W-SW 257 0 min 0,000 mm 0,0 UV-I 0 W/m 1,2 C -3,6 C 25,7 km/h (4 Bft) 98,06 %
28.11.2015 23:45 3,3 C 86 % 1021,4 hPa 0,0 l/m 16,1 km/h (3 Bft) W-SW 250 0 min 0,000 mm 0,0 UV-I 0 W/m 1,2 C -3,6 C 24,1 km/h (4 Bft) 96,97 %
28.11.2015 23:50 3,3 C 86 % 1021,5 hPa 0,0 l/m 15,0 km/h (3 Bft) W 270 0 min 0,000 mm 0,0 UV-I 0 W/m 1,2 C -3,0 C 24,1 km/h (4 Bft) 96,43 %
28.11.2015 23:55 3,3 C 85 % 1021,5 hPa 0,0 l/m 17,4 km/h (3 Bft) W-SW 247 0 min 0,000 mm 0,0 UV-I 0 W/m 1,0 C -4,2 C 30,6 km/h (5 Bft) 97,46 %
_ Min-Zeit 07:30 12:25 03:20 - 00:10 - - - - - - 12:30 15:25 00:10 12:40
Minimum _ 0,8 C 67 % 1012,4 hPa - 0,0 km/h (0 Bft) - - - - - - -1,4 C -8,0 C 0,0 km/h (0 Bft) 11,67 %
_ Max-Zeit 12:25 01:25 23:35 13:35 22:35 - - 11:00 12:00 11:35 12:10 20:00 11:15 12:55 00:40
Maximum _ 4,5 C 97 % 1021,5 hPa 0,2 l/m 25,8 km/h
W (4 Bft)
- - 5 min 0,127 mm 0,9 UV-I 357 W/m 2,0 C 2,5 C 43,5 km/h
W (6 Bft)
100,00 %
Durchschnitt _ 2,1 C 90 % 1015,4 hPa #1,6 l/m 10,8 km/h (2 Bft) W-SW - #1:40 h #0,508 mm 0,7 UV-I 104 W/m 0,6 C -1,8 C 18,5 km/h (3 Bft) 97,91 %